Weather History for KSWW - March, 2013

Change the Weather History Date:

Tuesday, March 19, 2013

  Actual Average Record
Temperature  
Mean Temperature 60 °F -  
Max Temperature 76 °F 69 °F 89 °F (1976)
Min Temperature 45 °F 43 °F 18 °F (1951)
Degree Days  
Heating Degree Days 5    
Growing Degree Days 10 (Base 50)    
Moisture  
Dew Point 39 °F    
Average Humidity 50    
Maximum Humidity 74    
Minimum Humidity 22    
Precipitation  
Precipitation 0.00 in - - ()
Sea Level Pressure  
Sea Level Pressure 30.01 in    
Wind  
Wind Speed 9 mph (ENE)    
Max Wind Speed 22 mph    
Max Gust Speed 28 mph    
Visibility 10 miles    
Events      
Averages and records for this station are not official NWS values.
T = Trace of Precipitation, MM = Missing Value Source: NWS Daily Summary

Daily Weather History Graph

Daily Weather History Graph

Search for Another Location

Airport or City:

Trip Planner

Search our weather history database for the weather conditions in past years. The results will help you decide how hot, cold, wet, or windy it might be!

Date:

Astronomy

Mar. 19, 2013 Rise Set
Actual Time 7:46 AM CDT 7:52 PM CDT
Civil Twilight 7:22 AM CDT 8:17 PM CDT
Nautical Twilight 6:53 AM CDT 8:46 PM CDT
Astronomical Twilight 6:24 AM CDT 9:14 PM CDT
Moon 12:56 PM CDT (3/19) 2:23 AM CDT (3/19)
Length of Visible Light 12h 55m
Length of Day
12h 06m
Waxing Crescent, 50% of the Moon is Illuminated
Mar 19
Waxing Crescent
Mar 19
First Quarter
Mar 27
Full
Apr 2
Last Quarter
Apr 10
New

Hourly Weather History & Observations

Time (CDT) Temp. Dew Point Humidity Pressure Visibility Wind Dir Wind Speed Gust Speed Precip Events Conditions
12:15 AM 52.9 °F 35.6 °F 52% 29.98 in 10.0 mi ESE 6.9 mph - N/A   Clear
12:35 AM 50.7 °F 35.6 °F 56% 29.98 in 10.0 mi SE 6.9 mph - N/A   Clear
1:15 AM 49.5 °F 36.0 °F 60% 29.97 in 10.0 mi SSE 8.1 mph - N/A   Clear
1:55 AM 48.2 °F 36.1 °F 63% 29.97 in 10.0 mi SE 4.6 mph - N/A   Clear
2:15 AM 50.5 °F 36.9 °F 59% 29.96 in 10.0 mi SSE 4.6 mph - N/A   Clear
2:35 AM 51.6 °F 38.1 °F 60% 29.96 in 10.0 mi SE 9.2 mph - N/A   Clear
2:55 AM 52.2 °F 38.5 °F 60% 29.96 in 10.0 mi SE 11.5 mph - N/A   Clear
3:15 AM 52.9 °F 39.2 °F 60% 29.96 in 10.0 mi SE 11.5 mph - N/A   Clear
3:35 AM 52.7 °F 39.4 °F 61% 29.97 in 10.0 mi ESE 8.1 mph - N/A   Clear
3:55 AM 52.9 °F 39.9 °F 61% 29.95 in 10.0 mi SE 13.8 mph - N/A   Clear
4:15 AM 53.4 °F 40.3 °F 61% 29.95 in 10.0 mi SE 11.5 mph - N/A   Clear
4:35 AM 53.6 °F 40.8 °F 62% 29.94 in 10.0 mi SE 15.0 mph 21.9 mph N/A   Clear
4:55 AM 53.8 °F 41.0 °F 62% 29.94 in 10.0 mi SE 18.4 mph 24.2 mph N/A   Clear
5:15 AM 54.0 °F 41.2 °F 62% 29.96 in 10.0 mi ESE 5.8 mph - N/A   Clear
5:35 AM 53.6 °F 41.2 °F 63% 29.98 in 10.0 mi ESE 3.5 mph - N/A   Clear
5:55 AM 50.4 °F 40.5 °F 69% 29.99 in 10.0 mi Calm Calm - N/A   Clear
6:15 AM 50.2 °F 39.9 °F 68% 30.00 in 10.0 mi Calm Calm - N/A   Clear
6:35 AM 50.2 °F 39.9 °F 68% 30.00 in 10.0 mi Calm Calm - N/A   Clear
6:55 AM 50.9 °F 40.8 °F 68% 30.01 in 10.0 mi ESE 4.6 mph - N/A   Clear
7:15 AM 50.5 °F 41.0 °F 70% 30.01 in 10.0 mi ENE 3.5 mph - N/A   Clear
7:35 AM 48.2 °F 40.3 °F 74% 30.01 in 10.0 mi ESE 5.8 mph - N/A   Clear
7:55 AM 48.0 °F 40.1 °F 74% 30.03 in 10.0 mi ENE 3.5 mph - N/A   Clear
8:15 AM 46.2 °F 38.5 °F 74% 30.03 in 10.0 mi Calm Calm - N/A   Clear
8:35 AM 45.5 °F 37.8 °F 74% 30.05 in 7.0 mi Calm Calm - N/A   Clear
8:55 AM 46.8 °F 38.3 °F 72% 30.04 in 10.0 mi ENE 4.6 mph - N/A   Clear
9:15 AM 49.1 °F 38.7 °F 67% 30.03 in 10.0 mi East 4.6 mph - N/A   Clear
9:35 AM 51.1 °F 39.6 °F 65% 30.03 in 10.0 mi ENE 3.5 mph - N/A   Clear
9:55 AM 54.1 °F 41.9 °F 63% 30.03 in 10.0 mi ESE 5.8 mph - N/A   Clear
10:15 AM 56.3 °F 42.3 °F 59% 30.02 in 10.0 mi SE 8.1 mph - N/A   Clear
10:35 AM 57.7 °F 42.4 °F 57% 30.02 in 10.0 mi SE 8.1 mph - N/A   Clear
10:55 AM 60.4 °F 42.3 °F 51% 30.01 in 10.0 mi South 8.1 mph - N/A   Clear
11:15 AM 62.6 °F 41.0 °F 45% 30.00 in 10.0 mi South 13.8 mph - N/A   Clear
11:35 AM 64.9 °F 39.9 °F 40% 29.99 in 10.0 mi South 12.7 mph 16.1 mph N/A   Clear
11:55 AM 67.5 °F 37.6 °F 33% 29.99 in 10.0 mi South 13.8 mph - N/A   Clear
12:15 PM 69.4 °F 36.3 °F 30% 29.99 in 10.0 mi South 10.4 mph 20.7 mph N/A   Clear
12:35 PM 72.3 °F 34.9 °F 25% 29.99 in 10.0 mi South 10.4 mph - N/A   Clear
12:55 PM 72.5 °F 34.7 °F 25% 29.98 in 10.0 mi SSW 10.4 mph - N/A   Clear
1:15 PM 74.3 °F 34.7 °F 24% 29.98 in 10.0 mi SW 6.9 mph - N/A   Clear
1:35 PM 74.8 °F 34.3 °F 23% 29.98 in 10.0 mi SW 8.1 mph - N/A   Clear
1:55 PM 75.2 °F 34.2 °F 22% 29.98 in 10.0 mi West 9.2 mph - N/A   Clear
2:15 PM 74.7 °F 34.7 °F 23% 29.96 in 10.0 mi West 3.5 mph - N/A   Clear
2:35 PM 75.2 °F 34.7 °F 23% 29.96 in 10.0 mi Calm Calm - N/A   Clear
2:55 PM 73.8 °F 38.1 °F 27% 29.95 in 10.0 mi North 13.8 mph 19.6 mph N/A   Clear
3:15 PM 71.4 °F 40.1 °F 32% 29.96 in 10.0 mi NNE 15.0 mph 20.7 mph N/A   Clear
3:35 PM 71.4 °F 39.9 °F 32% 29.95 in 10.0 mi NNE 16.1 mph - N/A   Clear
3:55 PM 70.2 °F 40.3 °F 34% 29.96 in 10.0 mi NNE 11.5 mph 16.1 mph N/A   Clear
4:15 PM 69.1 °F 40.3 °F 35% 29.95 in 10.0 mi NNE 15.0 mph 20.7 mph N/A   Clear
4:35 PM 69.4 °F 40.6 °F 35% 29.96 in 10.0 mi North 17.3 mph 21.9 mph N/A   Clear
4:55 PM 69.1 °F 40.6 °F 36% 29.96 in 10.0 mi NNE 15.0 mph - N/A   Clear
5:15 PM 68.9 °F 41.0 °F 36% 29.95 in 10.0 mi NE 19.6 mph 26.5 mph N/A   Clear
5:35 PM 67.3 °F 41.0 °F 38% 29.96 in 10.0 mi NE 16.1 mph 26.5 mph N/A   Clear
5:55 PM 67.3 °F 41.5 °F 39% 29.97 in 10.0 mi NE 16.1 mph 21.9 mph N/A   Clear
6:15 PM 66.0 °F 41.7 °F 41% 29.98 in 10.0 mi NE 16.1 mph - N/A   Clear
6:35 PM 65.5 °F 41.7 °F 42% 29.99 in 10.0 mi NNE 15.0 mph 18.4 mph N/A   Clear
6:55 PM 64.4 °F 41.0 °F 42% 30.00 in 10.0 mi NNE 16.1 mph 24.2 mph N/A   Clear
7:15 PM 63.5 °F 41.9 °F 45% 30.01 in 10.0 mi NE 15.0 mph 19.6 mph N/A   Clear
7:35 PM 62.8 °F 41.5 °F 46% 30.02 in 10.0 mi NNE 11.5 mph 19.6 mph N/A   Clear
7:55 PM 62.2 °F 38.7 °F 42% 30.03 in 10.0 mi NNE 13.8 mph 24.2 mph N/A   Clear
8:15 PM 61.2 °F 39.4 °F 45% 30.05 in 10.0 mi North 13.8 mph 27.6 mph N/A   Clear
8:35 PM 60.3 °F 40.6 °F 48% 30.06 in 10.0 mi North 21.9 mph 27.6 mph N/A   Clear
8:55 PM 59.9 °F 41.4 °F 50% 30.08 in 10.0 mi North 15.0 mph 25.3 mph N/A   Clear
9:15 PM 59.5 °F 42.1 °F 52% 30.09 in 10.0 mi North 16.1 mph 20.7 mph N/A   Clear
9:35 PM 58.5 °F 42.3 °F 55% 30.11 in 10.0 mi NNE 16.1 mph 26.5 mph N/A   Clear
9:55 PM 58.1 °F 41.9 °F 55% 30.12 in 10.0 mi NNE 18.4 mph 27.6 mph N/A   Clear
10:15 PM 57.4 °F 41.4 °F 55% 30.13 in 10.0 mi NNE 16.1 mph 24.2 mph N/A   Clear
10:35 PM 57.2 °F 40.3 °F 53% 30.14 in 10.0 mi NNE 15.0 mph 23.0 mph N/A   Clear
10:55 PM 56.8 °F 36.1 °F 46% 30.15 in 10.0 mi NNE 17.3 mph 26.5 mph N/A   Clear
11:15 PM 56.5 °F 33.4 °F 42% 30.16 in 10.0 mi NNE 17.3 mph 23.0 mph N/A   Clear
11:35 PM 56.3 °F 33.4 °F 42% 30.18 in 10.0 mi NNE 16.1 mph 25.3 mph N/A   Clear
11:55 PM 54.9 °F 32.9 °F 43% 30.19 in 10.0 mi NNE 13.8 mph 19.6 mph N/A   Clear